owner,sensor,date,latitude,longitude,vertical_datum,mass_concentration_of_oxygen_in_sea_water,qcFlag 
NERRS,ioos:station:NOAA.NERRS:rkblhwq:1,2019-03-01T03:45:00Z,26.0257,-81.7332,1.39,6.0,1111122 
NERRS,ioos:station:NOAA.NERRS:rkblhwq:1,2019-03-01T04:45:00Z,26.0257,-81.7332,1.3,5.9,1111122 
NERRS,ioos:station:NOAA.NERRS:rkblhwq:1,2019-03-01T05:45:00Z,26.0257,-81.7332,1.2,5.7,1111122 
NERRS,ioos:station:NOAA.NERRS:rkblhwq:1,2019-03-01T06:45:00Z,26.0257,-81.7332,1.09,5.6,1111122 
NERRS,ioos:station:NOAA.NERRS:rkblhwq:1,2019-03-01T07:45:00Z,26.0257,-81.7332,0.97,5.6,1111122 
NERRS,ioos:station:NOAA.NERRS:rkblhwq:1,2019-03-01T08:45:00Z,26.0257,-81.7332,0.88,5.2,1111122 
NERRS,ioos:station:NOAA.NERRS:rkblhwq:1,2019-03-01T09:30:00Z,26.0257,-81.7332,0.82,5.1,1111122 
NERRS,ioos:station:NOAA.NERRS:rkblhwq:1,2019-03-01T10:45:00Z,26.0257,-81.7332,0.81,5.0,1111122 
NERRS,ioos:station:NOAA.NERRS:rkblhwq:1,2019-03-01T11:45:00Z,26.0257,-81.7332,0.91,5.1,1111122 
NERRS,ioos:station:NOAA.NERRS:rkblhwq:1,2019-03-01T12:45:00Z,26.0257,-81.7332,1.03,5.2,1111122 
NERRS,ioos:station:NOAA.NERRS:rkblhwq:1,2019-03-01T13:45:00Z,26.0257,-81.7332,1.15,5.3,1111122 
NERRS,ioos:station:NOAA.NERRS:rkblhwq:1,2019-03-01T14:45:00Z,26.0257,-81.7332,1.28,5.4,1111122 
NERRS,ioos:station:NOAA.NERRS:rkblhwq:1,2019-03-01T15:45:00Z,26.0257,-81.7332,1.4,5.5,1111122 
NERRS,ioos:station:NOAA.NERRS:rkblhwq:1,2019-03-01T16:45:00Z,26.0257,-81.7332,1.48,5.7,1111122 
NERRS,ioos:station:NOAA.NERRS:rkblhwq:1,2019-03-01T17:45:00Z,26.0257,-81.7332,1.47,5.6,1111122 
NERRS,ioos:station:NOAA.NERRS:rkblhwq:1,2019-03-01T18:45:00Z,26.0257,-81.7332,1.39,5.8,1111122 
NERRS,ioos:station:NOAA.NERRS:rkblhwq:1,2019-03-01T19:45:00Z,26.0257,-81.7332,1.31,6.0,1111122 
NERRS,ioos:station:NOAA.NERRS:rkblhwq:1,2019-03-01T20:45:00Z,26.0257,-81.7332,1.25,6.3,1111122 
NERRS,ioos:station:NOAA.NERRS:rkblhwq:1,2019-03-01T21:45:00Z,26.0257,-81.7332,1.22,5.3,1111122 
NERRS,ioos:station:NOAA.NERRS:rkblhwq:1,2019-03-01T22:45:00Z,26.0257,-81.7332,1.26,6.5,1111122 
NERRS,ioos:station:NOAA.NERRS:rkblhwq:1,2019-03-01T23:45:00Z,26.0257,-81.7332,1.33,6.4,1111122 
NERRS,ioos:station:NOAA.NERRS:rkblhwq:1,2019-03-02T00:45:00Z,26.0257,-81.7332,1.43,6.2,1111122 
NERRS,ioos:station:NOAA.NERRS:rkblhwq:1,2019-03-02T01:45:00Z,26.0257,-81.7332,1.51,6.1,1111122 
NERRS,ioos:station:NOAA.NERRS:rkblhwq:1,2019-03-02T02:45:00Z,26.0257,-81.7332,1.56,5.9,1111122 
NERRS,ioos:station:NOAA.NERRS:rkblhwq:1,2019-03-02T03:45:00Z,26.0257,-81.7332,1.56,5.3,1111122 
NERRS,ioos:station:NOAA.NERRS:rkblhwq:1,2019-03-02T05:45:00Z,26.0257,-81.7332,1.41,5.4,1111122 
NERRS,ioos:station:NOAA.NERRS:rkblhwq:1,2019-03-02T06:45:00Z,26.0257,-81.7332,1.28,5.3,1111122 
NERRS,ioos:station:NOAA.NERRS:rkblhwq:1,2019-03-02T07:45:00Z,26.0257,-81.7332,1.14,5.3,1111122 
NERRS,ioos:station:NOAA.NERRS:rkblhwq:1,2019-03-02T08:45:00Z,26.0257,-81.7332,1.01,5.1,1111122 
NERRS,ioos:station:NOAA.NERRS:rkblhwq:1,2019-03-02T09:45:00Z,26.0257,-81.7332,0.89,4.7,1111122 
NERRS,ioos:station:NOAA.NERRS:rkblhwq:1,2019-03-02T10:45:00Z,26.0257,-81.7332,0.81,4.4,1111122 
NERRS,ioos:station:NOAA.NERRS:rkblhwq:1,2019-03-02T11:45:00Z,26.0257,-81.7332,0.82,4.2,1111122 
NERRS,ioos:station:NOAA.NERRS:rkblhwq:1,2019-03-02T12:45:00Z,26.0257,-81.7332,0.93,4.4,1111122 
NERRS,ioos:station:NOAA.NERRS:rkblhwq:1,2019-03-02T13:45:00Z,26.0257,-81.7332,1.04,4.7,1111122 
NERRS,ioos:station:NOAA.NERRS:rkblhwq:1,2019-03-02T14:45:00Z,26.0257,-81.7332,1.17,5.2,1111122 
NERRS,ioos:station:NOAA.NERRS:rkblhwq:1,2019-03-02T15:45:00Z,26.0257,-81.7332,1.3,5.3,1111122 
NERRS,ioos:station:NOAA.NERRS:rkblhwq:1,2019-03-02T16:45:00Z,26.0257,-81.7332,1.42,5.6,1111122 
NERRS,ioos:station:NOAA.NERRS:rkblhwq:1,2019-03-02T17:45:00Z,26.0257,-81.7332,1.49,5.3,1111122 
NERRS,ioos:station:NOAA.NERRS:rkblhwq:1,2019-03-02T18:45:00Z,26.0257,-81.7332,1.45,5.6,1111122 
NERRS,ioos:station:NOAA.NERRS:rkblhwq:1,2019-03-02T19:45:00Z,26.0257,-81.7332,1.34,5.9,1111122 
NERRS,ioos:station:NOAA.NERRS:rkblhwq:1,2019-03-02T20:45:00Z,26.0257,-81.7332,1.24,5.8,1111122 
NERRS,ioos:station:NOAA.NERRS:rkblhwq:1,2019-03-02T21:45:00Z,26.0257,-81.7332,1.17,5.8,1111122 
NERRS,ioos:station:NOAA.NERRS:rkblhwq:1,2019-03-02T22:45:00Z,26.0257,-81.7332,1.14,4.5,1111122 
NERRS,ioos:station:NOAA.NERRS:rkblhwq:1,2019-03-02T23:45:00Z,26.0257,-81.7332,1.19,6.1,1111122 
NERRS,ioos:station:NOAA.NERRS:rkblhwq:1,2019-03-03T00:45:00Z,26.0257,-81.7332,1.28,6.0,1111122 
NERRS,ioos:station:NOAA.NERRS:rkblhwq:1,2019-03-03T01:45:00Z,26.0257,-81.7332,1.38,5.9,1111122 
NERRS,ioos:station:NOAA.NERRS:rkblhwq:1,2019-03-03T02:45:00Z,26.0257,-81.7332,1.46,5.8,1111122 
NERRS,ioos:station:NOAA.NERRS:rkblhwq:1,2019-03-03T03:45:00Z,26.0257,-81.7332,1.51,5.5,1111122 
NERRS,ioos:station:NOAA.NERRS:rkblhwq:1,2019-03-03T04:45:00Z,26.0257,-81.7332,1.53,4.5,1111122 
NERRS,ioos:station:NOAA.NERRS:rkblhwq:1,2019-03-03T05:45:00Z,26.0257,-81.7332,1.48,5.3,1111122 
NERRS,ioos:station:NOAA.NERRS:rkblhwq:1,2019-03-03T06:45:00Z,26.0257,-81.7332,1.35,5.2,1111122 
NERRS,ioos:station:NOAA.NERRS:rkblhwq:1,2019-03-03T07:45:00Z,26.0257,-81.7332,1.21,4.8,1111122 
NERRS,ioos:station:NOAA.NERRS:rkblhwq:1,2019-03-03T08:45:00Z,26.0257,-81.7332,1.07,4.9,1111122 
NERRS,ioos:station:NOAA.NERRS:rkblhwq:1,2019-03-03T09:45:00Z,26.0257,-81.7332,0.95,4.5,1111122 
NERRS,ioos:station:NOAA.NERRS:rkblhwq:1,2019-03-03T10:45:00Z,26.0257,-81.7332,0.83,4.0,1111122 
NERRS,ioos:station:NOAA.NERRS:rkblhwq:1,2019-03-03T11:45:00Z,26.0257,-81.7332,0.76,3.7,1111122 
NERRS,ioos:station:NOAA.NERRS:rkblhwq:1,2019-03-03T12:45:00Z,26.0257,-81.7332,0.81,3.9,1111122 
NERRS,ioos:station:NOAA.NERRS:rkblhwq:1,2019-03-03T13:45:00Z,26.0257,-81.7332,0.92,4.1,1111122 
NERRS,ioos:station:NOAA.NERRS:rkblhwq:1,2019-03-03T14:45:00Z,26.0257,-81.7332,1.05,4.8,1111122 
NERRS,ioos:station:NOAA.NERRS:rkblhwq:1,2019-03-03T15:45:00Z,26.0257,-81.7332,1.22,5.1,1111122 
NERRS,ioos:station:NOAA.NERRS:rkblhwq:1,2019-03-03T16:45:00Z,26.0257,-81.7332,1.37,5.4,1111122 
NERRS,ioos:station:NOAA.NERRS:rkblhwq:1,2019-03-03T17:45:00Z,26.0257,-81.7332,1.47,5.4,1111122 
NERRS,ioos:station:NOAA.NERRS:rkblhwq:1,2019-03-03T18:45:00Z,26.0257,-81.7332,1.46,5.2,1111122 
NERRS,ioos:station:NOAA.NERRS:rkblhwq:1,2019-03-03T19:45:00Z,26.0257,-81.7332,1.37,5.5,1111122 
NERRS,ioos:station:NOAA.NERRS:rkblhwq:1,2019-03-03T20:45:00Z,26.0257,-81.7332,1.26,5.7,1111122 
NERRS,ioos:station:NOAA.NERRS:rkblhwq:1,2019-03-03T21:45:00Z,26.0257,-81.7332,1.17,5.5,1111122 
NERRS,ioos:station:NOAA.NERRS:rkblhwq:1,2019-03-03T22:45:00Z,26.0257,-81.7332,1.11,5.6,1111122 
NERRS,ioos:station:NOAA.NERRS:rkblhwq:1,2019-03-04T00:45:00Z,26.0257,-81.7332,1.23,5.5,1111122 
NERRS,ioos:station:NOAA.NERRS:rkblhwq:1,2019-03-04T01:45:00Z,26.0257,-81.7332,1.35,5.6,1111122 
NERRS,ioos:station:NOAA.NERRS:rkblhwq:1,2019-03-04T02:45:00Z,26.0257,-81.7332,1.47,5.5,1111122 
NERRS,ioos:station:NOAA.NERRS:rkblhwq:1,2019-03-04T04:45:00Z,26.0257,-81.7332,1.65,5.1,1111122 
NERRS,ioos:station:NOAA.NERRS:rkblhwq:1,2019-03-04T05:45:00Z,26.0257,-81.7332,1.65,4.6,1111122 
NERRS,ioos:station:NOAA.NERRS:rkblhwq:1,2019-03-04T06:45:00Z,26.0257,-81.7332,1.54,5.1,1111122 
NERRS,ioos:station:NOAA.NERRS:rkblhwq:1,2019-03-04T07:45:00Z,26.0257,-81.7332,1.41,5.0,1111122 
NERRS,ioos:station:NOAA.NERRS:rkblhwq:1,2019-03-04T09:45:00Z,26.0257,-81.7332,1.11,4.2,1111122 
NERRS,ioos:station:NOAA.NERRS:rkblhwq:1,2019-03-04T10:45:00Z,26.0257,-81.7332,0.98,4.5,1111122 
NERRS,ioos:station:NOAA.NERRS:rkblhwq:1,2019-03-04T11:45:00Z,26.0257,-81.7332,0.89,4.0,1111122 
NERRS,ioos:station:NOAA.NERRS:rkblhwq:1,2019-03-04T12:45:00Z,26.0257,-81.7332,0.85,2.7,1111122 
NERRS,ioos:station:NOAA.NERRS:rkblhwq:1,2019-03-04T13:45:00Z,26.0257,-81.7332,0.94,4.2,1111122 
NERRS,ioos:station:NOAA.NERRS:rkblhwq:1,2019-03-04T14:45:00Z,26.0257,-81.7332,1.08,4.6,1111122 
NERRS,ioos:station:NOAA.NERRS:rkblhwq:1,2019-03-04T15:45:00Z,26.0257,-81.7332,1.24,4.9,1111122 
NERRS,ioos:station:NOAA.NERRS:rkblhwq:1,2019-03-04T16:45:00Z,26.0257,-81.7332,1.39,5.3,1111122 
NERRS,ioos:station:NOAA.NERRS:rkblhwq:1,2019-03-04T17:45:00Z,26.0257,-81.7332,1.51,5.4,1111122 
NERRS,ioos:station:NOAA.NERRS:rkblhwq:1,2019-03-04T18:45:00Z,26.0257,-81.7332,1.52,4.8,1111122 
NERRS,ioos:station:NOAA.NERRS:rkblhwq:1,2019-03-04T19:45:00Z,26.0257,-81.7332,1.43,5.5,1111122 
NERRS,ioos:station:NOAA.NERRS:rkblhwq:1,2019-03-04T20:45:00Z,26.0257,-81.7332,1.32,5.6,1111122 
NERRS,ioos:station:NOAA.NERRS:rkblhwq:1,2019-03-04T21:45:00Z,26.0257,-81.7332,1.21,5.6,1111122 
NERRS,ioos:station:NOAA.NERRS:rkblhwq:1,2019-03-04T22:45:00Z,26.0257,-81.7332,1.11,5.4,1111122 
NERRS,ioos:station:NOAA.NERRS:rkblhwq:1,2019-03-04T23:45:00Z,26.0257,-81.7332,1.03,5.0,1111122 
NERRS,ioos:station:NOAA.NERRS:rkblhwq:1,2019-03-05T01:45:00Z,26.0257,-81.7332,1.14,5.3,1111122 
NERRS,ioos:station:NOAA.NERRS:rkblhwq:1,2019-03-05T02:45:00Z,26.0257,-81.7332,1.3,5.0,1111122 
NERRS,ioos:station:NOAA.NERRS:rkblhwq:1,2019-03-05T04:45:00Z,26.0257,-81.7332,1.53,5.0,1111122 
NERRS,ioos:station:NOAA.NERRS:rkblhwq:1,2019-03-05T05:45:00Z,26.0257,-81.7332,1.59,4.9,1111122 
NERRS,ioos:station:NOAA.NERRS:rkblhwq:1,2019-03-05T06:45:00Z,26.0257,-81.7332,1.53,4.9,1111122 
NERRS,ioos:station:NOAA.NERRS:rkblhwq:1,2019-03-05T07:45:00Z,26.0257,-81.7332,1.4,4.8,1111122 
NERRS,ioos:station:NOAA.NERRS:rkblhwq:1,2019-03-05T08:45:00Z,26.0257,-81.7332,1.26,4.4,1111122 
NERRS,ioos:station:NOAA.NERRS:rkblhwq:1,2019-03-05T09:45:00Z,26.0257,-81.7332,1.11,4.1,1111122 
NERRS,ioos:station:NOAA.NERRS:rkblhwq:1,2019-03-05T10:45:00Z,26.0257,-81.7332,0.99,4.1,1111122 
NERRS,ioos:station:NOAA.NERRS:rkblhwq:1,2019-03-05T11:45:00Z,26.0257,-81.7332,0.88,4.0,1111122 
NERRS,ioos:station:NOAA.NERRS:rkblhwq:1,2019-03-05T12:45:00Z,26.0257,-81.7332,0.79,3.5,1111122 
NERRS,ioos:station:NOAA.NERRS:rkblhwq:1,2019-03-05T13:45:00Z,26.0257,-81.7332,0.82,3.9,1111122 
NERRS,ioos:station:NOAA.NERRS:rkblhwq:1,2019-03-05T14:45:00Z,26.0257,-81.7332,0.93,4.3,1111122 
NERRS,ioos:station:NOAA.NERRS:rkblhwq:1,2019-03-05T15:45:00Z,26.0257,-81.7332,1.09,4.9,1111122 
NERRS,ioos:station:NOAA.NERRS:rkblhwq:1,2019-03-05T16:45:00Z,26.0257,-81.7332,1.27,5.2,1111122 
NERRS,ioos:station:NOAA.NERRS:rkblhwq:1,2019-03-05T17:45:00Z,26.0257,-81.7332,1.43,5.3,1111122 
NERRS,ioos:station:NOAA.NERRS:rkblhwq:1,2019-03-05T18:45:00Z,26.0257,-81.7332,1.5,5.1,1111122 
NERRS,ioos:station:NOAA.NERRS:rkblhwq:1,2019-03-05T19:45:00Z,26.0257,-81.7332,1.48,5.2,1111122 
NERRS,ioos:station:NOAA.NERRS:rkblhwq:1,2019-03-05T20:45:00Z,26.0257,-81.7332,1.32,5.5,1111122 
NERRS,ioos:station:NOAA.NERRS:rkblhwq:1,2019-03-05T22:45:00Z,26.0257,-81.7332,1.09,5.1,1111122 
NERRS,ioos:station:NOAA.NERRS:rkblhwq:1,2019-03-05T23:45:00Z,26.0257,-81.7332,1.01,5.0,1111122 
NERRS,ioos:station:NOAA.NERRS:rkblhwq:1,2019-03-06T01:45:00Z,26.0257,-81.7332,1.02,5.0,1111122 
NERRS,ioos:station:NOAA.NERRS:rkblhwq:1,2019-03-06T02:45:00Z,26.0257,-81.7332,1.1,5.3,1111122 
NERRS,ioos:station:NOAA.NERRS:rkblhwq:1,2019-03-06T04:45:00Z,26.0257,-81.7332,1.38,5.3,1111122 
NERRS,ioos:station:NOAA.NERRS:rkblhwq:1,2019-03-06T06:45:00Z,26.0257,-81.7332,1.5,4.9,1111122 
NERRS,ioos:station:NOAA.NERRS:rkblhwq:1,2019-03-06T07:45:00Z,26.0257,-81.7332,1.38,5.1,1111122 
NERRS,ioos:station:NOAA.NERRS:rkblhwq:1,2019-03-06T08:45:00Z,26.0257,-81.7332,1.24,4.9,1111122 
NERRS,ioos:station:NOAA.NERRS:rkblhwq:1,2019-03-06T09:45:00Z,26.0257,-81.7332,1.11,4.8,1111122 
NERRS,ioos:station:NOAA.NERRS:rkblhwq:1,2019-03-06T10:45:00Z,26.0257,-81.7332,0.97,4.6,1111122 
NERRS,ioos:station:NOAA.NERRS:rkblhwq:1,2019-03-06T11:45:00Z,26.0257,-81.7332,0.85,4.6,1111122 
NERRS,ioos:station:NOAA.NERRS:rkblhwq:1,2019-03-06T12:45:00Z,26.0257,-81.7332,0.75,4.7,1111122 
NERRS,ioos:station:NOAA.NERRS:rkblhwq:1,2019-03-06T13:45:00Z,26.0257,-81.7332,0.14,11.1,1111122 
NERRS,ioos:station:NOAA.NERRS:rkblhwq:1,2019-03-06T14:45:00Z,26.0257,-81.7332,0.69,5.7,1111122 
NERRS,ioos:station:NOAA.NERRS:rkblhwq:1,2019-03-06T15:45:00Z,26.0257,-81.7332,0.82,6.4,1111122 
NERRS,ioos:station:NOAA.NERRS:rkblhwq:1,2019-03-06T16:45:00Z,26.0257,-81.7332,0.97,6.6,1111122 
NERRS,ioos:station:NOAA.NERRS:rkblhwq:1,2019-03-06T17:45:00Z,26.0257,-81.7332,1.11,6.6,1111122 
NERRS,ioos:station:NOAA.NERRS:rkblhwq:1,2019-03-06T18:45:00Z,26.0257,-81.7332,1.25,6.9,1111122 
NERRS,ioos:station:NOAA.NERRS:rkblhwq:1,2019-03-06T19:45:00Z,26.0257,-81.7332,1.33,6.9,1111122 
NERRS,ioos:station:NOAA.NERRS:rkblhwq:1,2019-03-06T20:45:00Z,26.0257,-81.7332,1.26,7.1,1111122 
NERRS,ioos:station:NOAA.NERRS:rkblhwq:1,2019-03-06T21:45:00Z,26.0257,-81.7332,1.18,7.4,1111122 
NERRS,ioos:station:NOAA.NERRS:rkblhwq:1,2019-03-06T22:45:00Z,26.0257,-81.7332,1.09,7.2,1111122 
NERRS,ioos:station:NOAA.NERRS:rkblhwq:1,2019-03-06T23:45:00Z,26.0257,-81.7332,1.02,7.1,1111122 
NERRS,ioos:station:NOAA.NERRS:rkblhwq:1,2019-03-07T00:45:00Z,26.0257,-81.7332,0.97,6.8,1111122 
NERRS,ioos:station:NOAA.NERRS:rkblhwq:1,2019-03-07T01:45:00Z,26.0257,-81.7332,0.99,7.0,1111122 
NERRS,ioos:station:NOAA.NERRS:rkblhwq:1,2019-03-07T02:45:00Z,26.0257,-81.7332,1.1,6.8,1111122 
NERRS,ioos:station:NOAA.NERRS:rkblhwq:1,2019-03-07T03:45:00Z,26.0257,-81.7332,1.22,6.8,1111122 
NERRS,ioos:station:NOAA.NERRS:rkblhwq:1,2019-03-07T05:45:00Z,26.0257,-81.7332,1.49,6.6,1111122 
NERRS,ioos:station:NOAA.NERRS:rkblhwq:1,2019-03-07T06:45:00Z,26.0257,-81.7332,1.56,6.6,1111122 
NERRS,ioos:station:NOAA.NERRS:rkblhwq:1,2019-03-07T07:45:00Z,26.0257,-81.7332,1.5,6.4,1111122 
NERRS,ioos:station:NOAA.NERRS:rkblhwq:1,2019-03-07T08:45:00Z,26.0257,-81.7332,1.38,6.3,1111122 
NERRS,ioos:station:NOAA.NERRS:rkblhwq:1,2019-03-07T09:45:00Z,26.0257,-81.7332,1.25,6.0,1111122 
NERRS,ioos:station:NOAA.NERRS:rkblhwq:1,2019-03-07T10:45:00Z,26.0257,-81.7332,1.13,6.2,1111122 
NERRS,ioos:station:NOAA.NERRS:rkblhwq:1,2019-03-07T11:45:00Z,26.0257,-81.7332,1.01,6.1,1111122 
NERRS,ioos:station:NOAA.NERRS:rkblhwq:1,2019-03-07T12:45:00Z,26.0257,-81.7332,0.92,6.0,1111122 
NERRS,ioos:station:NOAA.NERRS:rkblhwq:1,2019-03-07T13:45:00Z,26.0257,-81.7332,0.86,6.1,1111122 
NERRS,ioos:station:NOAA.NERRS:rkblhwq:1,2019-03-07T14:45:00Z,26.0257,-81.7332,0.91,6.5,1111122 
NERRS,ioos:station:NOAA.NERRS:rkblhwq:1,2019-03-07T15:45:00Z,26.0257,-81.7332,1.03,6.9,1111122 
NERRS,ioos:station:NOAA.NERRS:rkblhwq:1,2019-03-07T16:45:00Z,26.0257,-81.7332,1.17,7.0,1111122 
NERRS,ioos:station:NOAA.NERRS:rkblhwq:1,2019-03-07T17:45:00Z,26.0257,-81.7332,1.33,7.3,1111122 
NERRS,ioos:station:NOAA.NERRS:rkblhwq:1,2019-03-07T18:45:00Z,26.0257,-81.7332,1.46,7.4,1111122 
NERRS,ioos:station:NOAA.NERRS:rkblhwq:1,2019-03-07T19:45:00Z,26.0257,-81.7332,1.52,7.6,1111122 
NERRS,ioos:station:NOAA.NERRS:rkblhwq:1,2019-03-07T20:45:00Z,26.0257,-81.7332,1.44,7.5,1111122 
NERRS,ioos:station:NOAA.NERRS:rkblhwq:1,2019-03-07T21:45:00Z,26.0257,-81.7332,1.32,7.7,1111122 
NERRS,ioos:station:NOAA.NERRS:rkblhwq:1,2019-03-07T22:45:00Z,26.0257,-81.7332,1.2,7.8,1111122 
NERRS,ioos:station:NOAA.NERRS:rkblhwq:1,2019-03-07T23:45:00Z,26.0257,-81.7332,1.1,7.6,1111122 
NERRS,ioos:station:NOAA.NERRS:rkblhwq:1,2019-03-08T00:45:00Z,26.0257,-81.7332,1.01,7.4,1111122 
NERRS,ioos:station:NOAA.NERRS:rkblhwq:1,2019-03-08T01:45:00Z,26.0257,-81.7332,0.97,7.5,1111122 
NERRS,ioos:station:NOAA.NERRS:rkblhwq:1,2019-03-08T02:45:00Z,26.0257,-81.7332,1.05,7.5,1111122 
NERRS,ioos:station:NOAA.NERRS:rkblhwq:1,2019-03-08T03:45:00Z,26.0257,-81.7332,1.18,7.2,1111122 
NERRS,ioos:station:NOAA.NERRS:rkblhwq:1,2019-03-08T04:45:00Z,26.0257,-81.7332,1.33,7.0,1111122 
NERRS,ioos:station:NOAA.NERRS:rkblhwq:1,2019-03-08T05:45:00Z,26.0257,-81.7332,1.48,6.9,1111122 
NERRS,ioos:station:NOAA.NERRS:rkblhwq:1,2019-03-08T06:45:00Z,26.0257,-81.7332,1.56,6.9,1111122 
NERRS,ioos:station:NOAA.NERRS:rkblhwq:1,2019-03-08T07:45:00Z,26.0257,-81.7332,1.57,6.8,1111122 
NERRS,ioos:station:NOAA.NERRS:rkblhwq:1,2019-03-08T08:45:00Z,26.0257,-81.7332,1.47,6.7,1111122 
NERRS,ioos:station:NOAA.NERRS:rkblhwq:1,2019-03-08T09:45:00Z,26.0257,-81.7332,1.35,6.4,1111122 
NERRS,ioos:station:NOAA.NERRS:rkblhwq:1,2019-03-08T10:45:00Z,26.0257,-81.7332,1.22,6.5,1111122 
NERRS,ioos:station:NOAA.NERRS:rkblhwq:1,2019-03-08T11:45:00Z,26.0257,-81.7332,1.09,6.3,1111122 
NERRS,ioos:station:NOAA.NERRS:rkblhwq:1,2019-03-08T12:45:00Z,26.0257,-81.7332,0.99,6.4,1111122 
NERRS,ioos:station:NOAA.NERRS:rkblhwq:1,2019-03-08T13:45:00Z,26.0257,-81.7332,0.91,6.3,1111122 
NERRS,ioos:station:NOAA.NERRS:rkblhwq:1,2019-03-08T15:45:00Z,26.0257,-81.7332,1.09,7.0,1111122 
NERRS,ioos:station:NOAA.NERRS:rkblhwq:1,2019-03-08T16:45:00Z,26.0257,-81.7332,1.24,7.1,1111122 
NERRS,ioos:station:NOAA.NERRS:rkblhwq:1,2019-03-08T17:45:00Z,26.0257,-81.7332,1.39,7.3,1111122 
NERRS,ioos:station:NOAA.NERRS:rkblhwq:1,2019-03-08T18:45:00Z,26.0257,-81.7332,1.52,7.4,1111122 
NERRS,ioos:station:NOAA.NERRS:rkblhwq:1,2019-03-08T19:45:00Z,26.0257,-81.7332,1.6,7.4,1111122 
NERRS,ioos:station:NOAA.NERRS:rkblhwq:1,2019-03-08T20:45:00Z,26.0257,-81.7332,1.59,7.3,1111122 
NERRS,ioos:station:NOAA.NERRS:rkblhwq:1,2019-03-08T21:45:00Z,26.0257,-81.7332,1.47,7.4,1111122 
NERRS,ioos:station:NOAA.NERRS:rkblhwq:1,2019-03-08T22:45:00Z,26.0257,-81.7332,1.34,7.4,1111122 
NERRS,ioos:station:NOAA.NERRS:rkblhwq:1,2019-03-08T23:45:00Z,26.0257,-81.7332,1.21,7.3,1111122 
NERRS,ioos:station:NOAA.NERRS:rkblhwq:1,2019-03-09T00:45:00Z,26.0257,-81.7332,1.08,7.4,1111122 
NERRS,ioos:station:NOAA.NERRS:rkblhwq:1,2019-03-09T01:45:00Z,26.0257,-81.7332,0.98,7.2,1111122 
NERRS,ioos:station:NOAA.NERRS:rkblhwq:1,2019-03-09T02:45:00Z,26.0257,-81.7332,0.95,6.7,1111122 
NERRS,ioos:station:NOAA.NERRS:rkblhwq:1,2019-03-09T03:45:00Z,26.0257,-81.7332,1.04,7.1,1111122 
NERRS,ioos:station:NOAA.NERRS:rkblhwq:1,2019-03-09T04:45:00Z,26.0257,-81.7332,1.19,6.7,1111122 
NERRS,ioos:station:NOAA.NERRS:rkblhwq:1,2019-03-09T05:45:00Z,26.0257,-81.7332,1.35,6.7,1111122 
NERRS,ioos:station:NOAA.NERRS:rkblhwq:1,2019-03-09T06:45:00Z,26.0257,-81.7332,1.51,6.6,1111122 
NERRS,ioos:station:NOAA.NERRS:rkblhwq:1,2019-03-09T07:45:00Z,26.0257,-81.7332,1.6,6.5,1111122 
NERRS,ioos:station:NOAA.NERRS:rkblhwq:1,2019-03-09T08:45:00Z,26.0257,-81.7332,1.58,6.5,1111122 
NERRS,ioos:station:NOAA.NERRS:rkblhwq:1,2019-03-09T09:45:00Z,26.0257,-81.7332,1.46,6.5,1111122 
NERRS,ioos:station:NOAA.NERRS:rkblhwq:1,2019-03-09T10:45:00Z,26.0257,-81.7332,1.33,6.2,1111122 
NERRS,ioos:station:NOAA.NERRS:rkblhwq:1,2019-03-09T11:45:00Z,26.0257,-81.7332,1.2,6.0,1111122 
NERRS,ioos:station:NOAA.NERRS:rkblhwq:1,2019-03-09T12:45:00Z,26.0257,-81.7332,1.08,5.9,1111122 
NERRS,ioos:station:NOAA.NERRS:rkblhwq:1,2019-03-09T13:45:00Z,26.0257,-81.7332,0.98,6.0,1111122 
NERRS,ioos:station:NOAA.NERRS:rkblhwq:1,2019-03-09T14:45:00Z,26.0257,-81.7332,0.94,6.1,1111122 
NERRS,ioos:station:NOAA.NERRS:rkblhwq:1,2019-03-09T15:45:00Z,26.0257,-81.7332,1.04,6.7,1111122 
NERRS,ioos:station:NOAA.NERRS:rkblhwq:1,2019-03-09T16:45:00Z,26.0257,-81.7332,1.19,7.0,1111122 
NERRS,ioos:station:NOAA.NERRS:rkblhwq:1,2019-03-09T17:45:00Z,26.0257,-81.7332,1.35,7.3,1111122 
NERRS,ioos:station:NOAA.NERRS:rkblhwq:1,2019-03-09T18:45:00Z,26.0257,-81.7332,1.5,7.3,1111122 
NERRS,ioos:station:NOAA.NERRS:rkblhwq:1,2019-03-09T19:45:00Z,26.0257,-81.7332,1.61,7.3,1111122 
NERRS,ioos:station:NOAA.NERRS:rkblhwq:1,2019-03-09T20:45:00Z,26.0257,-81.7332,1.64,7.3,1111122 
NERRS,ioos:station:NOAA.NERRS:rkblhwq:1,2019-03-09T21:45:00Z,26.0257,-81.7332,1.56,7.4,1111122 
NERRS,ioos:station:NOAA.NERRS:rkblhwq:1,2019-03-09T22:45:00Z,26.0257,-81.7332,1.43,7.4,1111122 
NERRS,ioos:station:NOAA.NERRS:rkblhwq:1,2019-03-09T23:45:00Z,26.0257,-81.7332,1.3,7.3,1111122 
NERRS,ioos:station:NOAA.NERRS:rkblhwq:1,2019-03-10T00:45:00Z,26.0257,-81.7332,1.17,7.2,1111122 
NERRS,ioos:station:NOAA.NERRS:rkblhwq:1,2019-03-10T01:45:00Z,26.0257,-81.7332,1.06,7.1,1111122 
NERRS,ioos:station:NOAA.NERRS:rkblhwq:1,2019-03-10T02:45:00Z,26.0257,-81.7332,0.98,7.2,1111122 
NERRS,ioos:station:NOAA.NERRS:rkblhwq:1,2019-03-10T03:45:00Z,26.0257,-81.7332,1.01,7.6,1111122 
NERRS,ioos:station:NOAA.NERRS:rkblhwq:1,2019-03-10T04:45:00Z,26.0257,-81.7332,1.13,6.7,1111122 
NERRS,ioos:station:NOAA.NERRS:rkblhwq:1,2019-03-10T05:45:00Z,26.0257,-81.7332,1.29,6.5,1111122 
NERRS,ioos:station:NOAA.NERRS:rkblhwq:1,2019-03-10T06:45:00Z,26.0257,-81.7332,1.45,6.4,1111122 
NERRS,ioos:station:NOAA.NERRS:rkblhwq:1,2019-03-10T07:45:00Z,26.0257,-81.7332,1.57,6.3,1111122 
NERRS,ioos:station:NOAA.NERRS:rkblhwq:1,2019-03-10T08:45:00Z,26.0257,-81.7332,1.63,6.1,1111122 
NERRS,ioos:station:NOAA.NERRS:rkblhwq:1,2019-03-10T09:45:00Z,26.0257,-81.7332,1.57,6.1,1111122 
NERRS,ioos:station:NOAA.NERRS:rkblhwq:1,2019-03-10T10:45:00Z,26.0257,-81.7332,1.47,6.2,1111122 
NERRS,ioos:station:NOAA.NERRS:rkblhwq:1,2019-03-10T11:45:00Z,26.0257,-81.7332,1.35,5.8,1111122 
NERRS,ioos:station:NOAA.NERRS:rkblhwq:1,2019-03-10T12:45:00Z,26.0257,-81.7332,1.24,5.8,1111122 
NERRS,ioos:station:NOAA.NERRS:rkblhwq:1,2019-03-10T13:45:00Z,26.0257,-81.7332,1.14,5.7,1111122 
NERRS,ioos:station:NOAA.NERRS:rkblhwq:1,2019-03-10T14:45:00Z,26.0257,-81.7332,1.07,5.6,1111122 
NERRS,ioos:station:NOAA.NERRS:rkblhwq:1,2019-03-10T15:45:00Z,26.0257,-81.7332,1.12,6.5,1111122 
NERRS,ioos:station:NOAA.NERRS:rkblhwq:1,2019-03-10T16:45:00Z,26.0257,-81.7332,1.26,6.7,1111122 
NERRS,ioos:station:NOAA.NERRS:rkblhwq:1,2019-03-10T17:45:00Z,26.0257,-81.7332,1.4,6.9,1111122 
NERRS,ioos:station:NOAA.NERRS:rkblhwq:1,2019-03-10T18:45:00Z,26.0257,-81.7332,1.54,7.1,1111122 
NERRS,ioos:station:NOAA.NERRS:rkblhwq:1,2019-03-10T19:45:00Z,26.0257,-81.7332,1.65,7.1,1111122 
NERRS,ioos:station:NOAA.NERRS:rkblhwq:1,2019-03-10T20:45:00Z,26.0257,-81.7332,1.68,6.3,1111122 
NERRS,ioos:station:NOAA.NERRS:rkblhwq:1,2019-03-10T21:45:00Z,26.0257,-81.7332,1.62,7.2,1111122 
NERRS,ioos:station:NOAA.NERRS:rkblhwq:1,2019-03-11T04:45:00Z,26.0257,-81.7332,1.0,6.5,1111122 
NERRS,ioos:station:NOAA.NERRS:rkblhwq:1,2019-03-11T05:45:00Z,26.0257,-81.7332,1.12,6.1,1111122 
NERRS,ioos:station:NOAA.NERRS:rkblhwq:1,2019-03-11T06:45:00Z,26.0257,-81.7332,1.25,6.0,1111122 
NERRS,ioos:station:NOAA.NERRS:rkblhwq:1,2019-03-11T07:15:00Z,26.0257,-81.7332,1.32,5.9,1111122 
NERRS,ioos:station:NOAA.NERRS:rkblhwq:1,2019-03-11T08:45:00Z,26.0257,-81.7332,1.5,5.8,1111122 
NERRS,ioos:station:NOAA.NERRS:rkblhwq:1,2019-03-11T09:45:00Z,26.0257,-81.7332,1.55,5.5,1111122 
NERRS,ioos:station:NOAA.NERRS:rkblhwq:1,2019-03-11T10:45:00Z,26.0257,-81.7332,1.48,5.5,1111122 
NERRS,ioos:station:NOAA.NERRS:rkblhwq:1,2019-03-11T11:45:00Z,26.0257,-81.7332,1.37,5.3,1111122 
NERRS,ioos:station:NOAA.NERRS:rkblhwq:1,2019-03-11T12:45:00Z,26.0257,-81.7332,1.27,5.1,1111122 
NERRS,ioos:station:NOAA.NERRS:rkblhwq:1,2019-03-11T13:45:00Z,26.0257,-81.7332,1.17,5.1,1111122 
NERRS,ioos:station:NOAA.NERRS:rkblhwq:1,2019-03-11T14:45:00Z,26.0257,-81.7332,1.1,5.3,1111122 
NERRS,ioos:station:NOAA.NERRS:rkblhwq:1,2019-03-11T15:45:00Z,26.0257,-81.7332,1.12,5.7,1111122 
NERRS,ioos:station:NOAA.NERRS:rkblhwq:1,2019-03-11T16:45:00Z,26.0257,-81.7332,1.21,6.4,1111122 
NERRS,ioos:station:NOAA.NERRS:rkblhwq:1,2019-03-11T17:45:00Z,26.0257,-81.7332,1.31,6.6,1111122 
NERRS,ioos:station:NOAA.NERRS:rkblhwq:1,2019-03-11T18:45:00Z,26.0257,-81.7332,1.44,6.8,1111122 
NERRS,ioos:station:NOAA.NERRS:rkblhwq:1,2019-03-11T19:45:00Z,26.0257,-81.7332,1.55,7.0,1111122 
NERRS,ioos:station:NOAA.NERRS:rkblhwq:1,2019-03-11T20:45:00Z,26.0257,-81.7332,1.64,7.1,1111122 
NERRS,ioos:station:NOAA.NERRS:rkblhwq:1,2019-03-11T21:45:00Z,26.0257,-81.7332,1.64,7.0,1111122 
NERRS,ioos:station:NOAA.NERRS:rkblhwq:1,2019-03-11T22:45:00Z,26.0257,-81.7332,1.54,7.0,1111122 
NERRS,ioos:station:NOAA.NERRS:rkblhwq:1,2019-03-11T23:45:00Z,26.0257,-81.7332,1.41,6.9,1111122 
NERRS,ioos:station:NOAA.NERRS:rkblhwq:1,2019-03-12T00:45:00Z,26.0257,-81.7332,1.28,6.6,1111122 
NERRS,ioos:station:NOAA.NERRS:rkblhwq:1,2019-03-12T02:45:00Z,26.0257,-81.7332,1.03,5.9,1111122 
NERRS,ioos:station:NOAA.NERRS:rkblhwq:1,2019-03-12T03:45:00Z,26.0257,-81.7332,0.93,6.1,1111122 
NERRS,ioos:station:NOAA.NERRS:rkblhwq:1,2019-03-12T04:45:00Z,26.0257,-81.7332,0.89,5.4,1111122 
NERRS,ioos:station:NOAA.NERRS:rkblhwq:1,2019-03-12T05:45:00Z,26.0257,-81.7332,0.96,6.0,1111122 
NERRS,ioos:station:NOAA.NERRS:rkblhwq:1,2019-03-12T06:45:00Z,26.0257,-81.7332,1.06,5.7,1111122 